Home > Time Zones > World Clock > Weather > Palau > Koror > Past weeks

Flag for Palau Weather past 2 weeks in Koror, Palau

Now
82 °F

Partly cloudy.


Feels Like: 91 °F
Forecast: 81 / 88 °F
Wind: 9 mph from Northeast

Location: Koror / Palau Island

Current Time: Dec 22, 2014 at 6:27:57 PM

Latest Report: Dec 22, 2014 at 5:54 PM


Visibility: 15 mi

Pressure: 29.80 "Hg

Humidity: 84%

Dew point: 77 °F

Location of KororLocation

Historic Weather in Koror — Graph

°F

Koror temperature yesterday

Maximum temperature yesterday: 88 °F (at 9:55 AM)
Minimum temperature yesterday: 77 °F (at 11:50 PM)
Average temperature yesterday: 83 °F

Past Weeks' High & Low Weather Summary

 TemperatureHumidityPressure
High88 °F (Dec 8, 11:50 AM)100% (Dec 8, 4:51 AM)29.93 "Hg (Dec 8, 4:51 AM)
Low77 °F (Dec 8, 12:53 AM)66% (Dec 21, 1:54 PM)29.73 "Hg (Dec 21, 2:50 PM)
Average82 °F87%29.83 "Hg
* Reported Dec 7 4:51 PM — Dec 22 4:52 PM, Koror, Weather by CustomWeather, © 2014

Note: Actual official high and low records may vary slightly from our data, if they occured in-between our weather recording intervals... More about our weather records

Advertising

Koror weather history for previous 24 hours

 ConditionsComfort  
Time TempWeatherWind HumidityBarometerVisibility
4:52 PM
Dec 22
84 °FBroken clouds.10 mph79%29.78 "Hg15 mi
3:50 PM86 °FBroken clouds.13 mph75%29.76 "Hg15 mi
2:50 PM88 °FBroken clouds.12 mph70%29.77 "Hg15 mi
1:50 PM88 °FPartly sunny.12 mph75%29.78 "Hg15 mi
12:50 PM88 °FPartly sunny.12 mph70%29.79 "Hg15 mi
11:50 AM88 °FPartly sunny.13 mph75%29.81 "Hg15 mi
10:55 AM86 °FBroken clouds.8 mph75%29.82 "Hg15 mi
9:50 AM86 °FBroken clouds.12 mph75%29.84 "Hg15 mi
8:55 AM84 °FBroken clouds.9 mph84%29.85 "Hg15 mi
7:55 AM82 °FBroken clouds.5 mph89%29.85 "Hg15 mi
6:51 AM79 °FBroken clouds.No wind89%29.82 "Hg14 mi
4:50 AM77 °FSprinkles. Mostly cloudy.6 mph94%29.79 "Hg11 mi
3:50 AM79 °FPassing clouds.No wind89%29.78 "Hg15 mi
2:55 AM77 °FPassing clouds.No wind94%29.77 "Hg15 mi
12:52 AM77 °FPassing clouds.No wind100%29.80 "Hg15 mi
11:50 PM
Dec 21
77 °FPassing clouds.No wind100%29.80 "Hg14 mi
10:50 PM79 °FPartly cloudy.3 mph94%29.81 "Hg14 mi
9:50 PM79 °FPartly cloudy.3 mph94%29.82 "Hg14 mi
8:50 PM79 °FOvercast.No wind94%29.81 "Hg14 mi
7:50 PM81 °FPartly cloudy.3 mph89%29.79 "Hg15 mi
6:50 PM81 °FPartly cloudy.No wind89%29.78 "Hg15 mi
Weather by CustomWeather, © 2014

See weather overviewHow to use our weather pages